{"data":{"norad_id":57188,"epoch":"2026-05-25T04:01:11.527392Z","epoch_age_seconds":57616,"freshness":"FRESH","line1":"1 57188U 23091Y   26145.16749453  .00008652  00000+0  33628-3 0  9996","line2":"2 57188  97.5079 208.6289 0009592 164.1145 196.0395 15.26254956160803","mean_motion":15.26254956,"eccentricity":0.0009592,"inclination_deg":97.5079,"raan_deg":208.6289,"arg_perigee_deg":164.1145,"mean_anomaly_deg":196.0395,"bstar":0.00033628,"rev_number":16080,"period_min":94.34858798257,"perigee_km":480.43456643788,"apogee_km":493.60468290666,"semimajor_km":6865.1566246723,"source":"CELESTRAK","updated_at":"2026-05-25T13:37:59.912002Z"}}